Location: Hains Lake
(37.8540°N, 99.8578°W)
Time: 22:46:28
(UTC+00:00)

Explorer 7 - Pass Details

Date: 27 April 2021
Orbit: 484 x 677 km, 50.3° (Epoch: 13 May)

Event Time Altitude Azimuth Distance (km) Brightness Sun altitude
Rises 03:25:08 0° 307° (NW) 2,667 11.9 -21.4°
Reaches altitude 10° 03:28:05 10° 330° (NNW) 1,817 10.4 -21.9°
Maximum altitude 03:30:38 16° 8° (N) 1,524 9.4 -22.3°
Drops below altitude 10° 03:33:15 10° 46° (NE) 1,890 9.5 -22.7°
Enters shadow 03:33:16 10° 46° (NE) 1,893 9.5 -22.7°
